User: anonymous   Login
Location: Unspecified
(0.0000°N, 0.0000°E)
Time: 17:44:35
(UTC+00:00)
Language:

SJ-6A - Orbit

View from above orbital plane
View from above orbital plane
View from above satellite
View from above satellite

Ground track
Ground track

The orbit data is extracted from the following two-line orbital elements,

1 28413U 04035A   18198.10921150 -.00000511  00000-0 -42050-4 0  9990
2 28413  97.8021 214.0733 0017108 141.7082 218.5370 14.94313618754256
Epoch (UTC): 17 July 2018 02:37:15
Eccentricity: 0.0017108
inclination: 97.8021°
perigee height: 572 km
apogee height: 596 km
right ascension of ascending node: 214.0733°
argument of perigee: 141.7082°
revolutions per day: 14.94313618
mean anomaly at epoch: 218.5370°
orbit number at epoch: 75425

The dashed part of the orbit path shows where the satellite is in the earth's shadow,  

DLR